Un Akdeniz — TCTD2 — position and weather

sailwx.info

Track history (hours):
 
Tides and Currents Weather Stations Pressure Air Temp Water Temp Dewpoint Dewpoint Depression Visibility Wind Speed Wind Dir Waves Ship Positions

Un Akdeniz

Last reported at 2014-Jul-28 00:26 UTC. Time now 2014-Jul-29 14:46 UTC.
Position N 41°36' E 008°26'.

Length 193 m; draft 6.8 m.

Type: Ship (hazmat cat A). MMSI: 271002572.

Date/timePositionNaut miles runAvg speedWind from/ knotsBaromVisibWave heightAir tempDewpointWater temp
2014-Jul-28 00:26N 41°36' E 008°26'1618.5
2014-Jul-27 23:33N 41°46' E 008°09'1918.7
2014-Jul-27 22:34N 41°57' E 007°48'1918.8
2014-Jul-27 21:33N 42°08' E 007°28'1918.6
2014-Jul-27 20:33N 42°19' E 007°07'1818.5
2014-Jul-27 19:34N 42°29' E 006°47'1918.6
2014-Jul-27 18:33N 42°41' E 006°27'1818.4
2014-Jul-27 17:33N 42°51' E 006°06'1615.6
2014-Jul-27 16:32N 43°05' E 005°56'2 0.3
2014-Jul-27 08:22N 43°06' E 005°54'0 0.0
2014-Jul-27 07:33N 43°06' E 005°54'0 0.0
2014-Jul-27 06:27N 43°06' E 005°54'0 0.0
2014-Jul-27 05:32N 43°06' E 005°54'1 0.8
2014-Jul-27 04:33N 43°06' E 005°55'1010.1
2014-Jul-27 03:33N 42°58' E 006°02'1717.0
2014-Jul-27 02:33N 42°45' E 006°18'1919.3
2014-Jul-27 01:33N 42°34' E 006°40'1919.2
2014-Jul-27 00:33N 42°23' E 007°01'1918.8
2014-Jul-26 23:33N 42°13' E 007°22'2418.8
2014-Jul-26 22:18N 41°58' E 007°48'1721.2
2014-Jul-26 21:29N 41°48' E 008°06'25718.4
2014-Jul-26 07:33N 39°43' E 013°02'5919.5
2014-Jul-26 04:33N 39°13' E 014°07'1919.5
2014-Jul-26 03:33N 39°03' E 014°29'2219.6
2014-Jul-26 02:26N 38°52' E 014°53'3719.6
2014-Jul-26 00:33N 38°29' E 015°31'38817.7
2014-Jul-25 02:33N 36°28' E 023°15'1919.3
2014-Jul-25 01:33N 36°44' E 023°28'1919.2
2014-Jul-25 00:33N 36°59' E 023°44'2119.8
2014-Jul-24 23:30N 37°14' E 024°01'1919.7
2014-Jul-24 22:33N 37°28' E 024°17'1918.8
2014-Jul-24 21:33N 37°44' E 024°30'7919.7
2014-Jul-24 17:32N 38°56' E 025°12'5919.7
2014-Jul-24 14:32N 39°49' E 025°46'2119.2
2014-Jul-24 13:26N 40°01' E 026°08'12417.0
2014-Jul-24 06:07N 40°52' E 028°37'1218.8
2014-Jul-24 05:28N 40°49' E 028°52'1718.4
2014-Jul-24 04:33N 40°51' E 029°14'1 1.4
2014-Jul-24 03:33N 40°51' E 029°16'0 0.0
2014-Jul-24 02:33N 40°51' E 029°16'0 0.0
2014-Jul-24 01:33N 40°51' E 029°16'0 0.0
2014-Jul-24 00:33N 40°51' E 029°16'0 0.0
2014-Jul-23 23:31N 40°51' E 029°16'0 0.0
2014-Jul-23 22:32N 40°51' E 029°16'0 0.0
2014-Jul-23 21:33N 40°51' E 029°16'0 0.0
2014-Jul-23 20:32N 40°51' E 029°16'2 1.9
2014-Jul-23 19:33N 40°51' E 029°14'2 1.7
2014-Jul-23 18:30N 40°50' E 029°12'9 9.1
2014-Jul-23 17:33N 40°49' E 029°01'5116.9
2014-Jul-23 14:32N 40°45' E 027°53'5717.7
2014-Jul-23 11:21N 40°25' E 026°44'4614.5
2014-Jul-23 08:11N 39°56' E 025°58'1818.8
2014-Jul-23 07:13N 39°40' E 025°45'11719.1
2014-Jul-23 01:07N 37°56' E 024°38'1319.7
2014-Jul-23 00:27N 37°44' E 024°31'2219.2
2014-Jul-22 23:19N 37°25' E 024°17'1418.9
2014-Jul-22 22:33N 37°14' E 024°06'1918.8
2014-Jul-22 21:33N 36°59' E 023°52'1918.9
2014-Jul-22 20:33N 36°43' E 023°39'2019.1
2014-Jul-22 19:32N 36°30' E 023°21'1818.4
2014-Jul-22 18:32N 36°24' E 022°59'79018.3
2014-Jul-20 23:26N 42°02' E 007°38'1719.3
2014-Jul-20 22:33N 42°12' E 007°20'1919.4
2014-Jul-20 21:33N 42°23' E 006°59'1919.3
2014-Jul-20 20:33N 42°35' E 006°38'1919.1
2014-Jul-20 19:33N 42°46' E 006°16'1817.6
2014-Jul-20 18:33N 42°58' E 005°59'9 2.9
2014-Jul-20 15:24N 43°06' E 005°54'0 0.0
2014-Jul-20 13:29N 43°06' E 005°54'0 0.0
2014-Jul-20 12:04N 43°06' E 005°54'0 0.0
2014-Jul-20 11:28N 43°06' E 005°54'0 0.0
2014-Jul-20 10:31N 43°06' E 005°54'0 0.0
2014-Jul-20 08:27N 43°06' E 005°54'0 0.0
2014-Jul-20 07:26N 43°06' E 005°54'0 0.0
2014-Jul-20 06:29N 43°06' E 005°54'0 0.0
2014-Jul-20 05:13N 43°06' E 005°54'0 0.0
2014-Jul-20 04:31N 43°06' E 005°54'0 0.3
2014-Jul-20 03:33N 43°06' E 005°54'10 9.9
2014-Jul-20 02:33N 42°59' E 006°03'1817.9
2014-Jul-20 01:33N 42°45' E 006°18'2019.8
2014-Jul-20 00:33N 42°34' E 006°41'2019.6
2014-Jul-19 23:33N 42°23' E 007°02'1919.4
2014-Jul-19 22:33N 42°12' E 007°24'2019.5
2014-Jul-19 21:33N 42°00' E 007°45'2019.6
2014-Jul-19 20:33N 41°49' E 008°06'2019.5
2014-Jul-19 19:33N 41°37' E 008°28'2019.7
2014-Jul-19 18:33N 41°26' E 008°49'2019.8
2014-Jul-19 17:33N 41°18' E 009°13'2117.1
2014-Jul-19 16:19N 41°14' E 009°41'1418.5
2014-Jul-19 15:33N 41°07' E 009°57'1818.5
2014-Jul-19 14:33N 40°57' E 010°18'1919.0
2014-Jul-19 13:33N 40°47' E 010°40'2019.5
2014-Jul-19 12:32N 40°37' E 011°02'2019.2
2014-Jul-19 11:29N 40°27' E 011°25'8219.2
2014-Jul-19 07:13N 39°45' E 012°56'1319.4
2014-Jul-19 06:33N 39°38' E 013°11'1919.2
2014-Jul-19 05:33N 39°29' E 013°32'1919.5
2014-Jul-19 04:33N 39°18' E 013°54'2019.3
2014-Jul-19 03:32N 39°08' E 014°16'1919.3
2014-Jul-19 02:33N 38°59' E 014°37'5819.0
2014-Jul-18 23:30N 38°23' E 015°35'1414.2
2014-Jul-18 22:32N 38°10' E 015°36'  
Track history (hours):
 
Tides and Currents Weather Stations Pressure Air Temp Water Temp Dewpoint Dewpoint Depression Visibility Wind Speed Wind Dir Waves Ship Positions

Un Akdeniz

Last reported at 2014-Jul-28 00:26 UTC. Time now 2014-Jul-29 14:46 UTC.
Position N 41°36' E 008°26'.

Length 193 m; draft 6.8 m.

Type: Ship (hazmat cat A). MMSI: 271002572.

Date/timePositionNaut miles runAvg speedWind from/ knotsBaromVisibWave heightAir tempDewpointWater temp
2014-Jul-28 00:26N 41°36' E 008°26'1618.5
2014-Jul-27 23:33N 41°46' E 008°09'1918.7
2014-Jul-27 22:34N 41°57' E 007°48'1918.8
2014-Jul-27 21:33N 42°08' E 007°28'1918.6
2014-Jul-27 20:33N 42°19' E 007°07'1818.5
2014-Jul-27 19:34N 42°29' E 006°47'1918.6
2014-Jul-27 18:33N 42°41' E 006°27'1818.4
2014-Jul-27 17:33N 42°51' E 006°06'1615.6
2014-Jul-27 16:32N 43°05' E 005°56'2 0.3
2014-Jul-27 08:22N 43°06' E 005°54'0 0.0
2014-Jul-27 07:33N 43°06' E 005°54'0 0.0
2014-Jul-27 06:27N 43°06' E 005°54'0 0.0
2014-Jul-27 05:32N 43°06' E 005°54'1 0.8
2014-Jul-27 04:33N 43°06' E 005°55'1010.1
2014-Jul-27 03:33N 42°58' E 006°02'1717.0
2014-Jul-27 02:33N 42°45' E 006°18'1919.3
2014-Jul-27 01:33N 42°34' E 006°40'1919.2
2014-Jul-27 00:33N 42°23' E 007°01'1918.8
2014-Jul-26 23:33N 42°13' E 007°22'2418.8
2014-Jul-26 22:18N 41°58' E 007°48'1721.2
2014-Jul-26 21:29N 41°48' E 008°06'25718.4
2014-Jul-26 07:33N 39°43' E 013°02'5919.5
2014-Jul-26 04:33N 39°13' E 014°07'1919.5
2014-Jul-26 03:33N 39°03' E 014°29'2219.6
2014-Jul-26 02:26N 38°52' E 014°53'3719.6
2014-Jul-26 00:33N 38°29' E 015°31'38817.7
2014-Jul-25 02:33N 36°28' E 023°15'1919.3
2014-Jul-25 01:33N 36°44' E 023°28'1919.2
2014-Jul-25 00:33N 36°59' E 023°44'2119.8
2014-Jul-24 23:30N 37°14' E 024°01'1919.7
2014-Jul-24 22:33N 37°28' E 024°17'1918.8
2014-Jul-24 21:33N 37°44' E 024°30'7919.7
2014-Jul-24 17:32N 38°56' E 025°12'5919.7
2014-Jul-24 14:32N 39°49' E 025°46'2119.2
2014-Jul-24 13:26N 40°01' E 026°08'12417.0
2014-Jul-24 06:07N 40°52' E 028°37'1218.8
2014-Jul-24 05:28N 40°49' E 028°52'1718.4
2014-Jul-24 04:33N 40°51' E 029°14'1 1.4
2014-Jul-24 03:33N 40°51' E 029°16'0 0.0
2014-Jul-24 02:33N 40°51' E 029°16'0 0.0
2014-Jul-24 01:33N 40°51' E 029°16'0 0.0
2014-Jul-24 00:33N 40°51' E 029°16'0 0.0
2014-Jul-23 23:31N 40°51' E 029°16'0 0.0
2014-Jul-23 22:32N 40°51' E 029°16'0 0.0
2014-Jul-23 21:33N 40°51' E 029°16'0 0.0
2014-Jul-23 20:32N 40°51' E 029°16'2 1.9
2014-Jul-23 19:33N 40°51' E 029°14'2 1.7
2014-Jul-23 18:30N 40°50' E 029°12'9 9.1
2014-Jul-23 17:33N 40°49' E 029°01'5116.9
2014-Jul-23 14:32N 40°45' E 027°53'5717.7
2014-Jul-23 11:21N 40°25' E 026°44'4614.5
2014-Jul-23 08:11N 39°56' E 025°58'1818.8
2014-Jul-23 07:13N 39°40' E 025°45'11719.1
2014-Jul-23 01:07N 37°56' E 024°38'1319.7
2014-Jul-23 00:27N 37°44' E 024°31'2219.2
2014-Jul-22 23:19N 37°25' E 024°17'1418.9
2014-Jul-22 22:33N 37°14' E 024°06'1918.8
2014-Jul-22 21:33N 36°59' E 023°52'1918.9
2014-Jul-22 20:33N 36°43' E 023°39'2019.1
2014-Jul-22 19:32N 36°30' E 023°21'1818.4
2014-Jul-22 18:32N 36°24' E 022°59'79018.3
2014-Jul-20 23:26N 42°02' E 007°38'1719.3
2014-Jul-20 22:33N 42°12' E 007°20'1919.4
2014-Jul-20 21:33N 42°23' E 006°59'1919.3
2014-Jul-20 20:33N 42°35' E 006°38'1919.1
2014-Jul-20 19:33N 42°46' E 006°16'1817.6
2014-Jul-20 18:33N 42°58' E 005°59'9 2.9
2014-Jul-20 15:24N 43°06' E 005°54'0 0.0
2014-Jul-20 13:29N 43°06' E 005°54'0 0.0
2014-Jul-20 12:04N 43°06' E 005°54'0 0.0
2014-Jul-20 11:28N 43°06' E 005°54'0 0.0
2014-Jul-20 10:31N 43°06' E 005°54'0 0.0
2014-Jul-20 08:27N 43°06' E 005°54'0 0.0
2014-Jul-20 07:26N 43°06' E 005°54'0 0.0
2014-Jul-20 06:29N 43°06' E 005°54'0 0.0
2014-Jul-20 05:13N 43°06' E 005°54'0 0.0
2014-Jul-20 04:31N 43°06' E 005°54'0 0.3
2014-Jul-20 03:33N 43°06' E 005°54'10 9.9
2014-Jul-20 02:33N 42°59' E 006°03'1817.9
2014-Jul-20 01:33N 42°45' E 006°18'2019.8
2014-Jul-20 00:33N 42°34' E 006°41'2019.6
2014-Jul-19 23:33N 42°23' E 007°02'1919.4
2014-Jul-19 22:33N 42°12' E 007°24'2019.5
2014-Jul-19 21:33N 42°00' E 007°45'2019.6
2014-Jul-19 20:33N 41°49' E 008°06'2019.5
2014-Jul-19 19:33N 41°37' E 008°28'2019.7
2014-Jul-19 18:33N 41°26' E 008°49'2019.8
2014-Jul-19 17:33N 41°18' E 009°13'2117.1
2014-Jul-19 16:19N 41°14' E 009°41'1418.5
2014-Jul-19 15:33N 41°07' E 009°57'1818.5
2014-Jul-19 14:33N 40°57' E 010°18'1919.0
2014-Jul-19 13:33N 40°47' E 010°40'2019.5
2014-Jul-19 12:32N 40°37' E 011°02'2019.2
2014-Jul-19 11:29N 40°27' E 011°25'8219.2
2014-Jul-19 07:13N 39°45' E 012°56'1319.4
2014-Jul-19 06:33N 39°38' E 013°11'1919.2
2014-Jul-19 05:33N 39°29' E 013°32'1919.5
2014-Jul-19 04:33N 39°18' E 013°54'2019.3
2014-Jul-19 03:32N 39°08' E 014°16'1919.3
2014-Jul-19 02:33N 38°59' E 014°37'5819.0
2014-Jul-18 23:30N 38°23' E 015°35'1414.2
2014-Jul-18 22:32N 38°10' E 015°36'  

Dump ship's entire track history